Location: Knowlton
(51.2333°N, 1.2667°E)
Time: 05:07:07
(UTC+00:00)

Terra - Pass Details

Date: 18 April 2021
Orbit: 701 x 703 km, 98.2° (Epoch: 06 May)

Event Time Altitude Azimuth Distance (km) Brightness Sun altitude
Exits shadow 21:28:59 46° 142° (SE) 950 2.0 -20.1°
Maximum altitude 21:30:21 72° 73° (ENE) 744 1.8 -20.3°
Drops below altitude 10° 21:35:07 10° 349° (N) 2,183 5.3 -20.7°
Sets 21:37:23 0° 348° (NNW) 3,105 6.3 -20.9°
